Total_Precipitation_Accumulation
2.74 2.78 2.78 2.86 2.74 2.57 2.55 2.68 2.82 2.60 2.39 2.17 1.99 1.79 1.83 1.81 1.93 1.69 1.66 1.73 1.65 1.51 1.37 1.27 1.27 1.44 1.77 2.18 2.42 2.42 2.50 2.77 3.20 3.57 3.40 3.30 3.23 3.21
2.44 2.50 2.53 2.57 2.56 2.51 2.50 2.56 2.59 2.56 2.43 2.17 1.89 1.64 1.69 1.73 1.93 1.66 1.71 1.95 1.86 1.68 1.45 1.36 1.32 1.33 1.45 1.59 1.70 1.66 1.67 1.81 2.18 2.87 3.16 3.15 3.17 3.27
2.12 2.15 2.28 2.35 2.53 2.55 2.52 2.50 2.50 2.43 2.29 2.15 1.89 1.68 1.65 1.76 1.84 1.72 1.74 1.80 1.73 1.70 1.55 1.44 1.31 1.36 1.46 1.50 1.54 1.46 1.37 1.37 1.48 1.74 2.12 2.38 2.56 2.82
1.85 1.91 2.03 2.10 2.24 2.35 2.45 2.36 2.39 2.38 2.34 2.29 2.06 1.85 1.76 1.77 1.86 1.82 1.70 1.67 1.68 1.76 1.59 1.49 1.39 1.29 1.41 1.42 1.52 1.59 1.47 1.34 1.28 1.32 1.50 1.73 1.96 2.19
1.61 1.69 1.78 1.88 1.97 2.08 2.16 2.23 2.27 2.27 2.36 2.32 2.12 1.94 1.79 1.73 1.80 1.74 1.68 1.75 1.64 1.75 1.73 1.59 1.52 1.39 1.39 1.41 1.39 1.51 1.52 1.44 1.28 1.27 1.34 1.47 1.64 1.82
1.41 1.40 1.44 1.49 1.63 1.77 1.86 1.99 2.14 2.29 2.37 2.39 2.23 1.99 1.82 1.77 1.86 1.91 1.89 1.79 1.77 1.67 1.72 1.68 1.67 1.62 1.49 1.46 1.36 1.36 1.45 1.50 1.33 1.26 1.27 1.29 1.34 1.42
1.48 1.36 1.26 1.28 1.44 1.55 1.62 1.84 2.03 2.17 2.30 2.36 2.26 2.09 1.93 1.86 1.82 1.83 1.92 2.00 2.00 1.83 1.77 1.66 1.62 1.48 1.35 1.36 1.35 1.29 1.27 1.30 1.25 1.14 1.08 1.04 1.06 1.13
1.41 1.40 1.40 1.37 1.27 1.26 1.36 1.53 1.74 1.90 2.05 2.16 2.18 2.01 1.83 1.81 1.88 1.91 1.93 2.00 2.05 1.89 1.81 1.84 1.79 1.65 1.48 1.33 1.39 1.33 1.27 1.24 1.24 1.21 1.13 1.06 1.06 1.08
1.37 1.37 1.39 1.37 1.46 1.32 1.29 1.32 1.32 1.47 1.72 1.92 1.93 1.83 1.88 1.83 1.84 1.82 1.81 1.81 1.85 1.88 1.86 1.85 1.81 1.72 1.54 1.45 1.55 1.47 1.41 1.34 1.29 1.27 1.25 1.17 1.10 1.06
1.48 1.51 1.55 1.56 1.50 1.63 1.59 1.47 1.36 1.31 1.41 1.34 1.40 1.69 1.85 1.92 1.96 1.97 2.01 1.92 1.85 1.87 1.81 1.81 1.68 1.61 1.52 1.43 1.52 1.45 1.41 1.35 1.30 1.26 1.27 1.28 1.27 1.23
1.51 1.48 1.53 1.53 1.80 1.92 1.74 1.63 1.51 1.42 1.60 1.62 1.59 1.67 1.80 1.84 1.85 1.92 1.99 1.95 1.87 1.79 1.70 1.63 1.56 1.60 1.67 1.56 1.52 1.61 1.56 1.47 1.37 1.37 1.35 1.34 1.37 1.39
1.59 1.53 1.71 1.65 1.73 1.74 1.62 1.75 1.66 1.49 1.43 1.39 1.38 1.43 1.48 1.58 1.68 1.66 1.80 1.86 1.79 1.81 1.64 1.60 1.60 1.69 1.75 1.62 1.46 1.46 1.55 1.61 1.52 1.44 1.44 1.43 1.44 1.36
1.51 1.50 1.48 1.68 1.56 1.56 1.59 1.63 1.76 1.72 1.67 1.68 1.57 1.47 1.41 1.42 1.43 1.48 1.62 1.73 1.75 1.73 1.59 1.58 1.65 1.73 1.68 1.54 1.48 1.39 1.36 1.39 1.39 1.31 1.30 1.38 1.42 1.34
1.35 1.22 1.24 1.42 1.33 1.34 1.34 1.44 1.67 1.71 1.63 1.69 1.64 1.52 1.41 1.34 1.32 1.38 1.52 1.60 1.59 1.59 1.63 1.63 1.68 1.71 1.72 1.52 1.43 1.41 1.41 1.39 1.39 1.31 1.18 1.32 1.38 1.42
1.18 1.23 1.17 1.15 1.15 1.09 1.15 1.31 1.42 1.57 1.65 1.65 1.52 1.41 1.37 1.36 1.38 1.39 1.42 1.53 1.56 1.53 1.53 1.52 1.60 1.70 1.78 1.65 1.49 1.42 1.50 1.55 1.51 1.44 1.33 1.23 1.20 1.26
1.03 0.99 1.00 1.01 1.01 1.00 1.01 1.05 1.14 1.42 1.65 1.59 1.47 1.41 1.43 1.47 1.53 1.55 1.52 1.50 1.57 1.56 1.55 1.56 1.56 1.62 1.63 1.53 1.54 1.53 1.52 1.59 1.55 1.55 1.50 1.40 1.27 1.19
1.21 1.11 1.06 1.00 0.98 0.97 0.98 1.05 1.19 1.35 1.53 1.47 1.49 1.46 1.49 1.58 1.60 1.62 1.70 1.68 1.63 1.55 1.60 1.71 1.78 1.78 1.71 1.66 1.63 1.57 1.62 1.60 1.61 1.63 1.63 1.57 1.42 1.26
1.33 1.24 1.25 1.21 1.16 1.13 1.09 1.07 1.11 1.21 1.31 1.41 1.46 1.49 1.52 1.57 1.61 1.62 1.69 1.72 1.69 1.61 1.57 1.66 1.85 2.02 1.99 1.82 1.65 1.60 1.69 1.75 1.76 1.73 1.67 1.59 1.46 1.35
1.20 1.19 1.23 1.21 1.17 1.15 1.13 1.11 1.12 1.15 1.23 1.34 1.49 1.58 1.61 1.65 1.71 1.75 1.74 1.74 1.68 1.62 1.61 1.64 1.80 2.00 2.09 1.87 1.62 1.54 1.63 1.72 1.85 1.78 1.65 1.54 1.40 1.31
1.02 1.11 1.15 1.19 1.18 1.17 1.13 1.10 1.10 1.12 1.18 1.25 1.37 1.50 1.66 1.79 1.82 1.84 1.87 1.88 1.84 1.75 1.72 1.71 1.70 1.80 1.94 1.86 1.65 1.49 1.55 1.65 1.75 1.72 1.58 1.48 1.42 1.46
0.83 0.94 1.02 1.08 1.08 1.10 1.14 1.17 1.17 1.18 1.18 1.22 1.26 1.32 1.44 1.63 1.77 1.83 1.93 2.10 2.09 1.97 1.90 1.80 1.73 1.86 1.84 1.87 1.78 1.48 1.41 1.49 1.56 1.58 1.55 1.58 1.54 1.45
0.82 0.88 0.94 1.00 1.06 1.10 1.14 1.15 1.15 1.15 1.17 1.21 1.24 1.28 1.35 1.45 1.56 1.66 1.79 1.95 2.03 2.06 2.01 1.89 1.85 1.97 2.00 2.05 1.89 1.61 1.49 1.42 1.46 1.57 1.57 1.60 1.58 1.48
0.83 0.84 0.86 0.92 0.98 1.08 1.22 1.28 1.24 1.21 1.21 1.25 1.32 1.36 1.39 1.45 1.47 1.55 1.64 1.75 1.86 1.91 1.98 1.99 1.95 1.96 1.96 1.92 1.88 1.78 1.66 1.59 1.52 1.48 1.41 1.47 1.46 1.37